Location: Oberwangen
(47.4286°N, 8.9679°E)
Time: 23:28:45
(UTC+00:00)

Cosmos 1302 Rocket - Pass Details

Date: 20 June 2021
Orbit: 757 x 775 km, 74.0° (Epoch: 23 July)

Event Time Altitude Azimuth Distance (km) Brightness Sun altitude
Exits shadow 20:51:07 - 192° (SSW) 2,971 6.6 -11.0°
Reaches altitude 10° 20:52:50 10° 190° (S) 2,307 6.1 -11.2°
Maximum altitude 20:58:02 68° 108° (ESE) 830 4.0 -11.7°
Drops below altitude 10° 21:03:14 10° 27° (NNE) 2,312 6.9 -12.2°
Sets 21:05:37 0° 25° (NNE) 3,240 7.7 -12.4°
